STARLINK-34553, 64681

Orbit data source: Space-Track

STARLINK-34553, 64681 is a payload satellite owned by SpaceX/Seattle (US) in LEO that was launched on Sat, 28 Jun 2025 UTC via an FALCON 9 launch vehicle from the Air Force Eastern Test Range (AFETR). Payload-class satellites include a variety of spacecraft equipped with specific instruments for various scientific and technological missions. These include communications satellites like Starlink; space stations such as the ISS; scientific satellites like the Hubble; Earth observation satellites from companies like Planet Labs, Umbra, and HawkEye 360; GPS; miniature CubeSats for education and research; and military/defense satellites.

Loading next visibility...
Identifier
64681, 2025-139T
Orbit
LEO
Country
Flag of USUS
Related business
Manufacturer
SpaceX/Seattle
Mission
Operational Commercial Communications
Bus & Motor
STARLINK V2MO, Unknown motor
Mass
575 kg wet, ~530 kg dry
Launch date (UTC)
2025-06-28 (1 year ago)
Launch vehicle
FALCON 9
Launch site
Air Force Eastern Test Range (AFETR)
Object type
Payload
Rocket body
Debris
Shape & HBR
Box + 2 Pan, 17.7 m
Radar Cross Section
36.964 m², Large (>1 m²)

Expand to show TLE details & history
Last TLE update: 22 hours ago

TLE from 22 hours ago
0 STARLINK-34553
1 64681U 25139T   26170.92214493  .00014156  00000-0  42912-3 0  9993
2 64681  53.1589  10.2475 0001173  77.4712 282.6422 15.34413459 55967
Epoch: 2026-06-19T22:07Z
TLE epoch observation values (Epoch: 2026-06-19T22:07:53.321Z)
Latitude
-0.00002°
Longitude
130.13114°
Altitude
463.389 km
Speed
7.636 km/s
True Right ascension
00h 40m 59s
True Declination
0° 00' 00"
Sunlit
Object was in daylight at epoch
Visualization orbit readout
Latitude
Unknown
Longitude
Unknown
Altitude
Unknown
Speed
Unknown
Apparent Right ascension
Unknown
Apparent Declination
Unknown
Sunlit
N/A
Visualization observer readout
Local Sidereal Time
07:21:55
Azimuth
Unknown
Elevation
Unknown
Doppler factor
Unknown
Orbital elements
Apogee altitude
463.723 km
Perigee altitude
462.118 km
Semi-major axis
6,841.057 km
Eccentricity
0.00012
Inclination
53.1589°
RAAN
10.2475°
Arg. of periapsis
77.4712°
True anomaly
282.62908°
Mean anomaly
282.6422°
Eccentric anomaly
282.63564°
Mean motion
3.83582 °/min
Orbital period
93.85 mins
BSTAR
0.00042912
Loading maneuver chart data...
Computing Atmospheric mass density...
Loading historical data...
Loading historical data...
Loading historical data...
Loading historical data...
Loading historical data...
Loading historical data...
Loading historical data...

Documentation

Showing up to 5 results
|